User: anonymous   Login
Location: Unspecified
(0.0000°N, 0.0000°E)
Time: 11:44:57
(UTC+00:00)
Language:

STSS DEMO 1 (USA 208) - Orbit

View from above orbital plane
View from above orbital plane
View from above satellite
View from above satellite

Ground track
Ground track

The orbit data is extracted from the following two-line orbital elements,

1 35937U 09052A   16269.69772833 0.00000000  00000-0  00000-0 0    05
2 35937  57.9887  18.9710 0012464  48.9910 311.0089 12.79320413    01
Epoch (UTC): 25 September 2016 16:44:43
Eccentricity: 0.0012464
inclination: 57.9887°
perigee height: 1334 km
apogee height: 1354 km
right ascension of ascending node: 18.9710°
argument of perigee: 48.9910°
revolutions per day: 12.79320413
mean anomaly at epoch: 311.0089°
orbit number at epoch: 0

The dashed part of the orbit path shows where the satellite is in the earth's shadow,  

DLR